TIANMU-1 12

Last updated on Thu Nov 21 2024 00:02:20 GMT+0000 (Coordinated Universal Time)

1 58646U 23205B 24325.58005139 .00008687 00000+0 42646-3 0 9991 2 58646 97.3900 346.7570 0007830 202.4697 157.6196 15.18292026 50207
UTC large
Height (km)
Speed (km/s)
/
Latitude / Longitude
Inclination (degrees)
Orbital Period (minutes)
Azimuth
Elevation
Range (km)
Doppler Factor

Next 0 passes for location: London (51.5072 / 0.1276)

Sorry there are no passes over London.